Year,Month,Day,Hour,Minute,Value (Times are PST for temperature in C)
2016,09,21,00,00,9.20
2016,09,21,00,01,9.20
2016,09,21,00,02,9.10
2016,09,21,00,03,9.10
2016,09,21,00,04,9.10
2016,09,21,00,05,9.10
2016,09,21,00,06,9.10
2016,09,21,00,07,9.10
2016,09,21,00,08,9.10
2016,09,21,00,09,9.10
2016,09,21,00,10,9.10
2016,09,21,00,11,9.00
2016,09,21,00,12,9.10
2016,09,21,00,13,9.10
2016,09,21,00,14,9.00
2016,09,21,00,15,9.00
2016,09,21,00,16,9.00
2016,09,21,00,17,9.00
2016,09,21,00,18,9.00
2016,09,21,00,19,9.00
2016,09,21,00,20,9.00
2016,09,21,00,21,9.00
2016,09,21,00,22,8.90
2016,09,21,00,23,8.90
2016,09,21,00,24,8.90
2016,09,21,00,25,8.90
2016,09,21,00,26,8.90
2016,09,21,00,27,8.90
2016,09,21,00,28,8.90
2016,09,21,00,29,8.90
2016,09,21,00,30,8.90
2016,09,21,00,31,8.90
2016,09,21,00,32,8.90
2016,09,21,00,33,8.90
2016,09,21,00,34,8.90
2016,09,21,00,35,8.90
2016,09,21,00,36,8.90
2016,09,21,00,37,8.90
2016,09,21,00,38,8.90
2016,09,21,00,39,8.90
2016,09,21,00,40,8.90
2016,09,21,00,41,8.90
2016,09,21,00,42,8.90
2016,09,21,00,43,8.90
2016,09,21,00,44,8.90
2016,09,21,00,45,8.90
2016,09,21,00,46,8.90
2016,09,21,00,47,8.80
2016,09,21,00,48,8.80
2016,09,21,00,49,8.80
2016,09,21,00,50,8.80
2016,09,21,00,51,8.80
2016,09,21,00,52,8.80
2016,09,21,00,53,8.80
2016,09,21,00,54,8.80
2016,09,21,00,55,8.80
2016,09,21,00,56,8.80
2016,09,21,00,57,8.70
2016,09,21,00,58,8.70
2016,09,21,00,59,8.70
2016,09,21,01,00,8.70
2016,09,21,01,01,8.70
2016,09,21,01,02,8.70
2016,09,21,01,03,8.70
2016,09,21,01,04,8.70
2016,09,21,01,05,8.70
2016,09,21,01,06,8.60
2016,09,21,01,07,8.60
2016,09,21,01,08,8.60
2016,09,21,01,09,8.60
2016,09,21,01,10,8.60
2016,09,21,01,11,8.60
2016,09,21,01,12,8.60
2016,09,21,01,13,8.60
2016,09,21,01,14,8.60
2016,09,21,01,15,8.60
2016,09,21,01,16,8.60
2016,09,21,01,17,8.60
2016,09,21,01,18,8.60
2016,09,21,01,19,8.60
2016,09,21,01,20,8.60
2016,09,21,01,21,8.60
2016,09,21,01,22,8.60
2016,09,21,01,23,8.50
2016,09,21,01,24,8.50
2016,09,21,01,25,8.50
2016,09,21,01,26,8.50
2016,09,21,01,27,8.50
2016,09,21,01,28,8.50
2016,09,21,01,29,8.50
2016,09,21,01,30,8.50
2016,09,21,01,31,8.50
2016,09,21,01,32,8.50
2016,09,21,01,33,8.50
2016,09,21,01,34,8.40
2016,09,21,01,35,8.40
2016,09,21,01,36,8.40
2016,09,21,01,37,8.40
2016,09,21,01,38,8.40
2016,09,21,01,39,8.40
2016,09,21,01,40,8.40
2016,09,21,01,41,8.40
2016,09,21,01,42,8.40
2016,09,21,01,43,8.40
2016,09,21,01,44,8.40
2016,09,21,01,45,8.30
2016,09,21,01,46,8.30
2016,09,21,01,47,8.30
2016,09,21,01,48,8.30
2016,09,21,01,49,8.30
2016,09,21,01,50,8.30
2016,09,21,01,51,8.40
2016,09,21,01,52,8.40
2016,09,21,01,53,8.40
2016,09,21,01,54,8.40
2016,09,21,01,55,8.40
2016,09,21,01,56,8.40
2016,09,21,01,57,8.40
2016,09,21,01,58,8.40
2016,09,21,01,59,8.30
2016,09,21,02,00,8.30
2016,09,21,02,01,8.30
2016,09,21,02,02,8.30
2016,09,21,02,03,8.30
2016,09,21,02,04,8.30
2016,09,21,02,05,8.30
2016,09,21,02,06,8.30
2016,09,21,02,07,8.30
2016,09,21,02,08,8.30
2016,09,21,02,09,8.20
2016,09,21,02,10,8.20
2016,09,21,02,11,8.20
2016,09,21,02,12,8.20
2016,09,21,02,13,8.20
2016,09,21,02,14,8.20
2016,09,21,02,15,8.20
2016,09,21,02,16,8.20
2016,09,21,02,17,8.20
2016,09,21,02,18,8.20
2016,09,21,02,19,8.20
2016,09,21,02,20,8.20
2016,09,21,02,21,8.20
2016,09,21,02,22,8.20
2016,09,21,02,23,8.20
2016,09,21,02,24,8.20
2016,09,21,02,25,8.20
2016,09,21,02,26,8.20
2016,09,21,02,27,8.20
2016,09,21,02,28,8.20
2016,09,21,02,29,8.20
2016,09,21,02,30,8.20
2016,09,21,02,31,8.20
2016,09,21,02,32,8.20
2016,09,21,02,33,8.20
2016,09,21,02,34,8.20
2016,09,21,02,35,8.20
2016,09,21,02,36,8.10
2016,09,21,02,37,8.10
2016,09,21,02,38,8.10
2016,09,21,02,39,8.10
2016,09,21,02,40,8.00
2016,09,21,02,41,8.00
2016,09,21,02,42,7.90
2016,09,21,02,43,7.90
2016,09,21,02,44,7.90
2016,09,21,02,45,7.90
2016,09,21,02,46,7.90
2016,09,21,02,47,7.90
2016,09,21,02,48,7.90
2016,09,21,02,49,7.90
2016,09,21,02,50,7.90
2016,09,21,02,51,7.90
2016,09,21,02,52,7.90
2016,09,21,02,53,7.90
2016,09,21,02,54,7.90
2016,09,21,02,55,7.90
2016,09,21,02,56,7.90
2016,09,21,02,57,7.90
2016,09,21,02,58,7.90
2016,09,21,02,59,7.90
2016,09,21,03,00,7.80
2016,09,21,03,01,7.80
2016,09,21,03,02,7.80
2016,09,21,03,03,7.70
2016,09,21,03,04,7.70
2016,09,21,03,05,7.70
2016,09,21,03,06,7.70
2016,09,21,03,07,7.70
2016,09,21,03,08,7.70
2016,09,21,03,09,7.70
2016,09,21,03,10,7.70
2016,09,21,03,11,7.70
2016,09,21,03,12,7.70
2016,09,21,03,13,7.60
2016,09,21,03,14,7.60
2016,09,21,03,15,7.60
2016,09,21,03,16,7.60
2016,09,21,03,17,7.60
2016,09,21,03,18,7.60
2016,09,21,03,19,7.60
2016,09,21,03,20,7.60
2016,09,21,03,21,7.60
2016,09,21,03,22,7.60
2016,09,21,03,23,7.60
2016,09,21,03,24,7.60
2016,09,21,03,25,7.60
2016,09,21,03,26,7.60
2016,09,21,03,27,7.60
2016,09,21,03,28,7.60
2016,09,21,03,29,7.60
2016,09,21,03,30,7.70
2016,09,21,03,31,7.70
2016,09,21,03,32,7.70
2016,09,21,03,33,7.60
2016,09,21,03,34,7.60
2016,09,21,03,35,7.60
2016,09,21,03,36,7.60
2016,09,21,03,37,7.50
2016,09,21,03,38,7.50
2016,09,21,03,39,7.50
2016,09,21,03,40,7.50
2016,09,21,03,41,7.40
2016,09,21,03,42,7.40
2016,09,21,03,43,7.40
2016,09,21,03,44,7.40
2016,09,21,03,45,7.40
2016,09,21,03,46,7.40
2016,09,21,03,47,7.40
2016,09,21,03,48,7.40
2016,09,21,03,49,7.40
2016,09,21,03,50,7.40
2016,09,21,03,51,7.40
2016,09,21,03,52,7.30
2016,09,21,03,53,7.30
2016,09,21,03,54,7.30
2016,09,21,03,55,7.20
2016,09,21,03,56,7.20
2016,09,21,03,57,7.20
2016,09,21,03,58,7.20
2016,09,21,03,59,7.10
2016,09,21,04,00,7.10
2016,09,21,04,01,7.10
2016,09,21,04,02,7.10
2016,09,21,04,03,7.10
2016,09,21,04,04,7.10
2016,09,21,04,05,7.20
2016,09,21,04,06,7.20
2016,09,21,04,07,7.20
2016,09,21,04,08,7.30
2016,09,21,04,09,7.30
2016,09,21,04,10,7.30
2016,09,21,04,11,7.30
2016,09,21,04,12,7.30
2016,09,21,04,13,7.30
2016,09,21,04,14,7.40
2016,09,21,04,15,7.40
2016,09,21,04,16,7.40
2016,09,21,04,17,7.40
2016,09,21,04,18,7.40
2016,09,21,04,19,7.40
2016,09,21,04,20,7.40
2016,09,21,04,21,7.40
2016,09,21,04,22,7.40
2016,09,21,04,23,7.40
2016,09,21,04,24,7.30
2016,09,21,04,25,7.30
2016,09,21,04,26,7.30
2016,09,21,04,27,7.30
2016,09,21,04,28,7.20
2016,09,21,04,29,7.20
2016,09,21,04,30,7.20
2016,09,21,04,31,7.20
2016,09,21,04,32,7.20
2016,09,21,04,33,7.20
2016,09,21,04,34,7.20
2016,09,21,04,35,7.20
2016,09,21,04,36,7.20
2016,09,21,04,37,7.10
2016,09,21,04,38,7.10
2016,09,21,04,39,7.10
2016,09,21,04,40,7.10
2016,09,21,04,41,7.10
2016,09,21,04,42,7.10
2016,09,21,04,43,7.00
2016,09,21,04,44,7.00
2016,09,21,04,45,7.00
2016,09,21,04,46,7.00
2016,09,21,04,47,6.90
2016,09,21,04,48,6.90
2016,09,21,04,49,6.90
2016,09,21,04,50,6.90
2016,09,21,04,51,7.00
2016,09,21,04,52,7.00
2016,09,21,04,53,7.00
2016,09,21,04,54,7.00
2016,09,21,04,55,7.00
2016,09,21,04,56,7.00
2016,09,21,04,57,6.90
2016,09,21,04,58,6.90
2016,09,21,04,59,6.90
2016,09,21,05,00,6.90
2016,09,21,05,01,6.90
2016,09,21,05,02,6.90
2016,09,21,05,03,6.90
2016,09,21,05,04,6.80
2016,09,21,05,05,6.80
2016,09,21,05,06,6.80
2016,09,21,05,07,6.80
2016,09,21,05,08,6.80
2016,09,21,05,09,6.80
2016,09,21,05,10,6.70
2016,09,21,05,11,6.70
2016,09,21,05,12,6.70
2016,09,21,05,13,6.70
2016,09,21,05,14,6.70
2016,09,21,05,15,6.80
2016,09,21,05,16,6.80
2016,09,21,05,17,6.80
2016,09,21,05,18,6.90
2016,09,21,05,19,6.90
2016,09,21,05,20,6.90
2016,09,21,05,21,6.90
2016,09,21,05,22,7.00
2016,09,21,05,23,7.00
2016,09,21,05,24,7.10
2016,09,21,05,25,7.10
2016,09,21,05,26,7.10
2016,09,21,05,27,7.10
2016,09,21,05,28,7.10
2016,09,21,05,29,7.10
2016,09,21,05,30,7.10
2016,09,21,05,31,7.10
2016,09,21,05,32,7.10
2016,09,21,05,33,7.10
2016,09,21,05,34,7.00
2016,09,21,05,35,7.00
2016,09,21,05,36,7.00
2016,09,21,05,37,7.00
2016,09,21,05,38,6.90
2016,09,21,05,39,6.90
2016,09,21,05,40,6.90
2016,09,21,05,41,6.90
2016,09,21,05,42,6.90
2016,09,21,05,43,6.90
2016,09,21,05,44,6.90
2016,09,21,05,45,6.90
2016,09,21,05,46,6.90
2016,09,21,05,47,6.90
2016,09,21,05,48,6.90
2016,09,21,05,49,6.90
2016,09,21,05,50,6.90
2016,09,21,05,51,6.90
2016,09,21,05,52,6.90
2016,09,21,05,53,6.80
2016,09,21,05,54,6.80
2016,09,21,05,55,6.80
2016,09,21,05,56,6.80
2016,09,21,05,57,6.80
2016,09,21,05,58,6.80
2016,09,21,05,59,6.80
2016,09,21,06,00,6.80
2016,09,21,06,01,6.80
2016,09,21,06,02,6.90
2016,09,21,06,03,6.90
2016,09,21,06,04,6.90
2016,09,21,06,05,6.90
2016,09,21,06,06,6.90
2016,09,21,06,07,7.00
2016,09,21,06,08,7.00
2016,09,21,06,09,7.00
2016,09,21,06,10,7.00
2016,09,21,06,11,7.00
2016,09,21,06,12,6.90
2016,09,21,06,13,6.90
2016,09,21,06,14,6.80
2016,09,21,06,15,6.80
2016,09,21,06,16,6.80
2016,09,21,06,17,6.80
2016,09,21,06,18,6.70
2016,09,21,06,19,6.70
2016,09,21,06,20,6.70
2016,09,21,06,21,6.70
2016,09,21,06,22,6.60
2016,09,21,06,23,6.70
2016,09,21,06,24,6.70
2016,09,21,06,25,6.70
2016,09,21,06,26,6.80
2016,09,21,06,27,6.80
2016,09,21,06,28,6.80
2016,09,21,06,29,6.80
2016,09,21,06,30,6.80
2016,09,21,06,31,6.80
2016,09,21,06,32,6.80
2016,09,21,06,33,6.80
2016,09,21,06,34,6.70
2016,09,21,06,35,6.70
2016,09,21,06,36,6.70
2016,09,21,06,37,6.70
2016,09,21,06,38,6.70
2016,09,21,06,39,6.70
2016,09,21,06,40,6.70
2016,09,21,06,41,6.70
2016,09,21,06,42,6.70
2016,09,21,06,43,6.70
2016,09,21,06,44,6.70
2016,09,21,06,45,6.70
2016,09,21,06,46,6.70
2016,09,21,06,47,6.70
2016,09,21,06,48,6.70
2016,09,21,06,49,6.70
2016,09,21,06,50,6.70
2016,09,21,06,51,6.70
2016,09,21,06,52,6.70
2016,09,21,06,53,6.70
2016,09,21,06,54,6.70
2016,09,21,06,55,6.70
2016,09,21,06,56,6.70
2016,09,21,06,57,6.70
2016,09,21,06,58,6.60
2016,09,21,06,59,6.60
2016,09,21,07,00,6.60
2016,09,21,07,01,6.60
2016,09,21,07,02,6.60
2016,09,21,07,03,6.70
2016,09,21,07,04,6.70
2016,09,21,07,05,6.70
2016,09,21,07,06,6.70
2016,09,21,07,07,6.70
2016,09,21,07,08,6.70
2016,09,21,07,09,6.70
2016,09,21,07,10,6.70
2016,09,21,07,11,6.70
2016,09,21,07,12,6.70
2016,09,21,07,13,6.70
2016,09,21,07,14,6.70
2016,09,21,07,15,6.60
2016,09,21,07,16,6.60
2016,09,21,07,17,6.60
2016,09,21,07,18,6.60
2016,09,21,07,19,6.60
2016,09,21,07,20,6.60
2016,09,21,07,21,6.60
2016,09,21,07,22,6.60
2016,09,21,07,23,6.60
2016,09,21,07,24,6.60
2016,09,21,07,25,6.60
2016,09,21,07,26,6.60
2016,09,21,07,27,6.60
2016,09,21,07,28,6.60
2016,09,21,07,29,6.70
2016,09,21,07,30,6.70
2016,09,21,07,31,6.70
2016,09,21,07,32,6.70
2016,09,21,07,33,6.80
2016,09,21,07,34,6.80
2016,09,21,07,35,6.80
2016,09,21,07,36,6.80
2016,09,21,07,37,6.90
2016,09,21,07,38,6.90
2016,09,21,07,39,6.90
2016,09,21,07,40,7.00
2016,09,21,07,41,7.10
2016,09,21,07,42,7.10
2016,09,21,07,43,7.20
2016,09,21,07,44,7.20
2016,09,21,07,45,7.20
2016,09,21,07,46,7.20
2016,09,21,07,47,7.30
2016,09,21,07,48,7.30
2016,09,21,07,49,7.30
2016,09,21,07,50,7.40
2016,09,21,07,51,7.40
2016,09,21,07,52,7.40
2016,09,21,07,53,7.40
2016,09,21,07,54,7.40
2016,09,21,07,55,7.50
2016,09,21,07,56,7.50
2016,09,21,07,57,7.50
2016,09,21,07,58,7.50
2016,09,21,07,59,7.50
2016,09,21,08,00,7.60
2016,09,21,08,01,7.60
2016,09,21,08,02,7.70
2016,09,21,08,03,7.80
2016,09,21,08,04,7.90
2016,09,21,08,05,8.00
2016,09,21,08,06,8.00
2016,09,21,08,07,8.10
2016,09,21,08,08,8.20
2016,09,21,08,09,8.30
2016,09,21,08,10,8.40
2016,09,21,08,11,8.50
2016,09,21,08,12,8.50
2016,09,21,08,13,8.60
2016,09,21,08,14,8.60
2016,09,21,08,15,8.60
2016,09,21,08,16,8.60
2016,09,21,08,17,8.60
2016,09,21,08,18,8.60
2016,09,21,08,19,8.70
2016,09,21,08,20,8.70
2016,09,21,08,21,8.80
2016,09,21,08,22,8.90
2016,09,21,08,23,9.00
2016,09,21,08,24,9.00
2016,09,21,08,25,9.10
2016,09,21,08,26,9.10
2016,09,21,08,27,9.10
2016,09,21,08,28,9.20
2016,09,21,08,29,9.20
2016,09,21,08,30,9.20
2016,09,21,08,31,9.20
2016,09,21,08,32,9.20
2016,09,21,08,33,9.20
2016,09,21,08,34,9.30
2016,09,21,08,35,9.30
2016,09,21,08,36,9.30
2016,09,21,08,37,9.40
2016,09,21,08,38,9.40
2016,09,21,08,39,9.50
2016,09,21,08,40,9.50
2016,09,21,08,41,9.60
2016,09,21,08,42,9.60
2016,09,21,08,43,9.70
2016,09,21,08,44,9.70
2016,09,21,08,45,9.80
2016,09,21,08,46,9.80
2016,09,21,08,47,9.90
2016,09,21,08,48,9.90
2016,09,21,08,49,10.00
2016,09,21,08,50,10.10
2016,09,21,08,51,10.10
2016,09,21,08,52,10.20
2016,09,21,08,53,10.30
2016,09,21,08,54,10.40
2016,09,21,08,55,10.40
2016,09,21,08,56,10.50
2016,09,21,08,57,10.60
2016,09,21,08,58,10.60
2016,09,21,08,59,10.60
2016,09,21,09,00,10.70
2016,09,21,09,01,10.80
2016,09,21,09,02,10.90
2016,09,21,09,03,11.00
2016,09,21,09,04,11.10
2016,09,21,09,05,11.30
2016,09,21,09,06,11.40
2016,09,21,09,07,11.60
2016,09,21,09,08,11.70
2016,09,21,09,09,11.80
2016,09,21,09,10,12.00
2016,09,21,09,11,12.10
2016,09,21,09,12,12.20
2016,09,21,09,13,12.30
2016,09,21,09,14,12.50
2016,09,21,09,15,12.60
2016,09,21,09,16,12.70
2016,09,21,09,17,12.80
2016,09,21,09,18,12.90
2016,09,21,09,19,13.00
2016,09,21,09,20,13.10
2016,09,21,09,21,13.20
2016,09,21,09,22,13.30
2016,09,21,09,23,13.30
2016,09,21,09,24,13.40
2016,09,21,09,25,13.50
2016,09,21,09,26,13.60
2016,09,21,09,27,13.70
2016,09,21,09,28,13.70
2016,09,21,09,29,13.80
2016,09,21,09,30,13.90
2016,09,21,09,31,14.00
2016,09,21,09,32,14.10
2016,09,21,09,33,14.10
2016,09,21,09,34,14.20
2016,09,21,09,35,14.30
2016,09,21,09,36,14.30
2016,09,21,09,37,14.40
2016,09,21,09,38,14.40
2016,09,21,09,39,14.50
2016,09,21,09,40,14.50
2016,09,21,09,41,14.60
2016,09,21,09,42,14.70
2016,09,21,09,43,14.70
2016,09,21,09,44,14.70
2016,09,21,09,45,14.70
2016,09,21,09,46,14.70
2016,09,21,09,47,14.70
2016,09,21,09,48,14.70
2016,09,21,09,49,14.80
2016,09,21,09,50,14.80
2016,09,21,09,51,14.80
2016,09,21,09,52,14.70
2016,09,21,09,53,14.80
2016,09,21,09,54,14.80
2016,09,21,09,55,14.80
2016,09,21,09,56,14.90
2016,09,21,09,57,14.90
2016,09,21,09,58,15.00
2016,09,21,09,59,15.10
2016,09,21,10,00,15.10
2016,09,21,10,01,15.20
2016,09,21,10,02,15.20
2016,09,21,10,03,15.20
2016,09,21,10,04,15.30
2016,09,21,10,05,15.30
2016,09,21,10,06,15.40
2016,09,21,10,07,15.40
2016,09,21,10,08,15.50
2016,09,21,10,09,15.50
2016,09,21,10,10,15.60
2016,09,21,10,11,15.70
2016,09,21,10,12,15.70
2016,09,21,10,13,15.80
2016,09,21,10,14,15.90
2016,09,21,10,15,16.00
2016,09,21,10,16,16.10
2016,09,21,10,17,16.10
2016,09,21,10,18,16.20
2016,09,21,10,19,16.20
2016,09,21,10,20,16.20
2016,09,21,10,21,16.30
2016,09,21,10,22,16.30
2016,09,21,10,23,16.30
2016,09,21,10,24,16.40
2016,09,21,10,25,16.30
2016,09,21,10,26,16.30
2016,09,21,10,27,16.30
2016,09,21,10,28,16.20
2016,09,21,10,29,16.20
2016,09,21,10,30,16.20
2016,09,21,10,31,16.20
2016,09,21,10,32,16.20
2016,09,21,10,33,16.20
2016,09,21,10,34,16.20
2016,09,21,10,35,16.20
2016,09,21,10,36,16.30
2016,09,21,10,37,16.30
2016,09,21,10,38,16.30
2016,09,21,10,39,16.30
2016,09,21,10,40,16.30
2016,09,21,10,41,16.40
2016,09,21,10,42,16.40
2016,09,21,10,43,16.50
2016,09,21,10,44,16.60
2016,09,21,10,45,16.60
2016,09,21,10,46,16.60
2016,09,21,10,47,16.60
2016,09,21,10,48,16.60
2016,09,21,10,49,16.70
2016,09,21,10,50,16.70
2016,09,21,10,51,16.80
2016,09,21,10,52,16.80
2016,09,21,10,53,16.90
2016,09,21,10,54,17.00
2016,09,21,10,55,17.00
2016,09,21,10,56,17.10
2016,09,21,10,57,17.20
2016,09,21,10,58,17.20
2016,09,21,10,59,17.20
2016,09,21,11,00,17.20
2016,09,21,11,01,17.20
2016,09,21,11,02,17.20
2016,09,21,11,03,17.20
2016,09,21,11,04,17.20
2016,09,21,11,05,17.20
2016,09,21,11,06,17.20
2016,09,21,11,07,17.20
2016,09,21,11,08,17.20
2016,09,21,11,09,17.20
2016,09,21,11,10,17.30
2016,09,21,11,11,17.30
2016,09,21,11,12,17.30
2016,09,21,11,13,17.40
2016,09,21,11,14,17.40
2016,09,21,11,15,17.50
2016,09,21,11,16,17.60
2016,09,21,11,17,17.70
2016,09,21,11,18,17.70
2016,09,21,11,19,17.80
2016,09,21,11,20,17.80
2016,09,21,11,21,17.80
2016,09,21,11,22,17.70
2016,09,21,11,23,17.60
2016,09,21,11,24,17.60
2016,09,21,11,25,17.60
2016,09,21,11,26,17.60
2016,09,21,11,27,17.60
2016,09,21,11,28,17.70
2016,09,21,11,29,17.70
2016,09,21,11,30,17.80
2016,09,21,11,31,17.80
2016,09,21,11,32,17.70
2016,09,21,11,33,17.60
2016,09,21,11,34,17.50
2016,09,21,11,35,17.50
2016,09,21,11,36,17.50
2016,09,21,11,37,17.50
2016,09,21,11,38,17.50
2016,09,21,11,39,17.50
2016,09,21,11,40,17.60
2016,09,21,11,41,17.50
2016,09,21,11,42,17.50
2016,09,21,11,43,17.40
2016,09,21,11,44,17.40
2016,09,21,11,45,17.30
2016,09,21,11,46,17.30
2016,09,21,11,47,17.30
2016,09,21,11,48,17.40
2016,09,21,11,49,17.40
2016,09,21,11,50,17.50
2016,09,21,11,51,17.50
2016,09,21,11,52,17.50
2016,09,21,11,53,17.60
2016,09,21,11,54,17.70
2016,09,21,11,55,17.70
2016,09,21,11,56,17.80
2016,09,21,11,57,17.80
2016,09,21,11,58,17.80
2016,09,21,11,59,17.90
2016,09,21,12,00,17.80
2016,09,21,12,01,17.80
2016,09,21,12,02,17.80
2016,09,21,12,03,17.80
2016,09,21,12,04,17.80
2016,09,21,12,05,17.80
2016,09,21,12,06,17.80
2016,09,21,12,07,17.80
2016,09,21,12,08,17.90
2016,09,21,12,09,17.90
2016,09,21,12,10,18.00
2016,09,21,12,11,18.10
2016,09,21,12,12,18.00
2016,09,21,12,13,17.90
2016,09,21,12,14,17.90
2016,09,21,12,15,17.90
2016,09,21,12,16,17.80
2016,09,21,12,17,17.80
2016,09,21,12,18,17.80
2016,09,21,12,19,17.80
2016,09,21,12,20,17.80
2016,09,21,12,21,17.90
2016,09,21,12,22,17.90
2016,09,21,12,23,17.90
2016,09,21,12,24,18.00
2016,09,21,12,25,18.10
2016,09,21,12,26,18.10
2016,09,21,12,27,18.20
2016,09,21,12,28,18.20
2016,09,21,12,29,18.30
2016,09,21,12,30,18.30
2016,09,21,12,31,18.20
2016,09,21,12,32,18.20
2016,09,21,12,33,18.20
2016,09,21,12,34,18.20
2016,09,21,12,35,18.20
2016,09,21,12,36,18.20
2016,09,21,12,37,18.20
2016,09,21,12,38,18.20
2016,09,21,12,39,18.20
2016,09,21,12,40,18.20
2016,09,21,12,41,18.20
2016,09,21,12,42,18.20
2016,09,21,12,43,18.20
2016,09,21,12,44,18.10
2016,09,21,12,45,18.10
2016,09,21,12,46,18.20
2016,09,21,12,47,18.20
2016,09,21,12,48,18.30
2016,09,21,12,49,18.40
2016,09,21,12,50,18.40
2016,09,21,12,51,18.40
2016,09,21,12,52,18.40
2016,09,21,12,53,18.40
2016,09,21,12,54,18.40
2016,09,21,12,55,18.50
2016,09,21,12,56,18.60
2016,09,21,12,57,18.70
2016,09,21,12,58,18.70
2016,09,21,12,59,18.80
2016,09,21,13,00,18.80
2016,09,21,13,01,18.90
2016,09,21,13,02,18.90
2016,09,21,13,03,18.90
2016,09,21,13,04,18.90
2016,09,21,13,05,18.90
2016,09,21,13,06,18.90
2016,09,21,13,07,18.90
2016,09,21,13,08,18.90
2016,09,21,13,09,18.80
2016,09,21,13,10,18.80
2016,09,21,13,11,18.70
2016,09,21,13,12,18.70
2016,09,21,13,13,18.70
2016,09,21,13,14,18.70
2016,09,21,13,15,18.60
2016,09,21,13,16,18.60
2016,09,21,13,17,18.60
2016,09,21,13,18,18.50
2016,09,21,13,19,18.50
2016,09,21,13,20,18.60
2016,09,21,13,21,18.60
2016,09,21,13,22,18.70
2016,09,21,13,23,18.70
2016,09,21,13,24,18.70
2016,09,21,13,25,18.70
2016,09,21,13,26,18.80
2016,09,21,13,27,18.80
2016,09,21,13,28,18.80
2016,09,21,13,29,18.80
2016,09,21,13,30,18.80
2016,09,21,13,31,18.80
2016,09,21,13,32,18.80
2016,09,21,13,33,18.80
2016,09,21,13,34,18.90
2016,09,21,13,35,18.90
2016,09,21,13,36,19.00
2016,09,21,13,37,19.10
2016,09,21,13,38,19.20
2016,09,21,13,39,19.20
2016,09,21,13,40,19.20
2016,09,21,13,41,19.20
2016,09,21,13,42,19.20
2016,09,21,13,43,19.10
2016,09,21,13,44,19.10
2016,09,21,13,45,19.00
2016,09,21,13,46,19.10
2016,09,21,13,47,19.10
2016,09,21,13,48,19.10
2016,09,21,13,49,19.20
2016,09,21,13,50,19.20
2016,09,21,13,51,19.30
2016,09,21,13,52,19.30
2016,09,21,13,53,19.40
2016,09,21,13,54,19.40
2016,09,21,13,55,19.40
2016,09,21,13,56,19.40
2016,09,21,13,57,19.30
2016,09,21,13,58,19.30
2016,09,21,13,59,19.30
2016,09,21,14,00,19.30
2016,09,21,14,01,19.30
2016,09,21,14,02,19.40
2016,09,21,14,03,19.40
2016,09,21,14,04,19.40
2016,09,21,14,05,19.30
2016,09,21,14,06,19.30
2016,09,21,14,07,19.30
2016,09,21,14,08,19.30
2016,09,21,14,09,19.20
2016,09,21,14,10,19.20
2016,09,21,14,11,19.20
2016,09,21,14,12,19.10
2016,09,21,14,13,19.10
2016,09,21,14,14,19.20
2016,09,21,14,15,19.10
2016,09,21,14,16,19.10
2016,09,21,14,17,19.00
2016,09,21,14,18,18.90
2016,09,21,14,19,18.80
2016,09,21,14,20,18.80
2016,09,21,14,21,18.80
2016,09,21,14,22,18.80
2016,09,21,14,23,18.80
2016,09,21,14,24,18.80
2016,09,21,14,25,18.80
2016,09,21,14,26,18.80
2016,09,21,14,27,18.80
2016,09,21,14,28,18.90
2016,09,21,14,29,18.90
2016,09,21,14,30,18.90
2016,09,21,14,31,18.90
2016,09,21,14,32,18.80
2016,09,21,14,33,18.80
2016,09,21,14,34,18.90
2016,09,21,14,35,18.90
2016,09,21,14,36,18.90
2016,09,21,14,37,18.90
2016,09,21,14,38,18.90
2016,09,21,14,39,18.90
2016,09,21,14,40,18.80
2016,09,21,14,41,18.90
2016,09,21,14,42,18.90
2016,09,21,14,43,19.00
2016,09,21,14,44,19.10
2016,09,21,14,45,19.20
2016,09,21,14,46,19.20
2016,09,21,14,47,19.20
2016,09,21,14,48,19.20
2016,09,21,14,49,19.20
2016,09,21,14,50,19.10
2016,09,21,14,51,19.10
2016,09,21,14,52,19.00
2016,09,21,14,53,19.00
2016,09,21,14,54,18.90
2016,09,21,14,55,18.90
2016,09,21,14,56,18.90
2016,09,21,14,57,18.90
2016,09,21,14,58,18.90
2016,09,21,14,59,18.90
2016,09,21,15,00,19.00
2016,09,21,15,01,19.10
2016,09,21,15,02,19.10
2016,09,21,15,03,19.10
2016,09,21,15,04,19.20
2016,09,21,15,05,19.10
2016,09,21,15,06,19.10
2016,09,21,15,07,19.00
2016,09,21,15,08,18.90
2016,09,21,15,09,18.90
2016,09,21,15,10,18.80
2016,09,21,15,11,18.80
2016,09,21,15,12,18.80
2016,09,21,15,13,18.80
2016,09,21,15,14,18.80
2016,09,21,15,15,18.80
2016,09,21,15,16,18.80
2016,09,21,15,17,18.90
2016,09,21,15,18,18.90
2016,09,21,15,19,18.90
2016,09,21,15,20,18.90
2016,09,21,15,21,19.00
2016,09,21,15,22,19.00
2016,09,21,15,23,19.00
2016,09,21,15,24,19.00
2016,09,21,15,25,19.00
2016,09,21,15,26,19.10
2016,09,21,15,27,19.10
2016,09,21,15,28,19.10
2016,09,21,15,29,19.10
2016,09,21,15,30,19.10
2016,09,21,15,31,19.20
2016,09,21,15,32,19.20
2016,09,21,15,33,19.20
2016,09,21,15,34,19.20
2016,09,21,15,35,19.20
2016,09,21,15,36,19.20
2016,09,21,15,37,19.20
2016,09,21,15,38,19.30
2016,09,21,15,39,19.30
2016,09,21,15,40,19.30
2016,09,21,15,41,19.30
2016,09,21,15,42,19.30
2016,09,21,15,43,19.30
2016,09,21,15,44,19.30
2016,09,21,15,45,19.30
2016,09,21,15,46,19.30
2016,09,21,15,47,19.20
2016,09,21,15,48,19.20
2016,09,21,15,49,19.20
2016,09,21,15,50,19.10
2016,09,21,15,51,19.10
2016,09,21,15,52,19.10
2016,09,21,15,53,19.10
2016,09,21,15,54,19.10
2016,09,21,15,55,19.10
2016,09,21,15,56,19.10
2016,09,21,15,57,19.10
2016,09,21,15,58,19.10
2016,09,21,15,59,19.20
2016,09,21,16,00,19.20
2016,09,21,16,01,19.20
2016,09,21,16,02,19.20
2016,09,21,16,03,19.20
2016,09,21,16,04,19.20
2016,09,21,16,05,19.20
2016,09,21,16,06,19.20
2016,09,21,16,07,19.20
2016,09,21,16,08,19.20
2016,09,21,16,09,19.20
2016,09,21,16,10,19.20
2016,09,21,16,11,19.20
2016,09,21,16,12,19.30
2016,09,21,16,13,19.30
2016,09,21,16,14,19.30
2016,09,21,16,15,19.30
2016,09,21,16,16,19.40
2016,09,21,16,17,19.40
2016,09,21,16,18,19.40
2016,09,21,16,19,19.40
2016,09,21,16,20,19.50
2016,09,21,16,21,19.50
2016,09,21,16,22,19.60
2016,09,21,16,23,19.60
2016,09,21,16,24,19.60
2016,09,21,16,25,19.60
2016,09,21,16,26,19.60
2016,09,21,16,27,19.50
2016,09,21,16,28,19.50
2016,09,21,16,29,19.50
2016,09,21,16,30,19.50
2016,09,21,16,31,19.40
2016,09,21,16,32,19.40
2016,09,21,16,33,19.40
2016,09,21,16,34,19.40
2016,09,21,16,35,19.40
2016,09,21,16,36,19.40
2016,09,21,16,37,19.40
2016,09,21,16,38,19.40
2016,09,21,16,39,19.40
2016,09,21,16,40,19.40
2016,09,21,16,41,19.40
2016,09,21,16,42,19.40
2016,09,21,16,43,19.40
2016,09,21,16,44,19.40
2016,09,21,16,45,19.30
2016,09,21,16,46,19.30
2016,09,21,16,47,19.30
2016,09,21,16,48,19.30
2016,09,21,16,49,19.30
2016,09,21,16,50,19.20
2016,09,21,16,51,19.20
2016,09,21,16,52,19.20
2016,09,21,16,53,19.20
2016,09,21,16,54,19.20
2016,09,21,16,55,19.20
2016,09,21,16,56,19.10
2016,09,21,16,57,19.10
2016,09,21,16,58,19.00
2016,09,21,16,59,19.00
2016,09,21,17,00,19.00
2016,09,21,17,01,18.90
2016,09,21,17,02,18.90
2016,09,21,17,03,18.90
2016,09,21,17,04,18.90
2016,09,21,17,05,18.90
2016,09,21,17,06,18.90
2016,09,21,17,07,18.90
2016,09,21,17,08,18.90
2016,09,21,17,09,18.90
2016,09,21,17,10,18.80
2016,09,21,17,11,18.80
2016,09,21,17,12,18.80
2016,09,21,17,13,18.80
2016,09,21,17,14,18.80
2016,09,21,17,15,18.80
2016,09,21,17,16,18.80
2016,09,21,17,17,18.80
2016,09,21,17,18,18.80
2016,09,21,17,19,18.80
2016,09,21,17,20,18.80
2016,09,21,17,21,18.80
2016,09,21,17,22,18.70
2016,09,21,17,23,18.70
2016,09,21,17,24,18.70
2016,09,21,17,25,18.70
2016,09,21,17,26,18.60
2016,09,21,17,27,18.50
2016,09,21,17,28,18.50
2016,09,21,17,29,18.50
2016,09,21,17,30,18.40
2016,09,21,17,31,18.40
2016,09,21,17,32,18.30
2016,09,21,17,33,18.30
2016,09,21,17,34,18.30
2016,09,21,17,35,18.30
2016,09,21,17,36,18.30
2016,09,21,17,37,18.20
2016,09,21,17,38,18.20
2016,09,21,17,39,18.20
2016,09,21,17,40,18.10
2016,09,21,17,41,18.10
2016,09,21,17,42,18.00